Tracking 29528 objects as of 13-Sep-2024
HD Live streaming from Space Station
objects crossing your sky now

AISTECHSAT-2

Track AISTECHSAT-2 now!
10-day predictions
AISTECHSAT-2 is classified as:


NORAD ID: 43768
Int'l Code: 2018-099L
Perigee: 556.3 km
Apogee: 563.8 km
Inclination: 97.5 °
Period: 95.7 minutes
Semi major axis: 6931 km
RCS: Unknown
Launch date: December 3, 2018
Source: Spain (SPN)
Launch site: AIR FORCE WESTERN TEST RANGE (AFWTR)

Uplink (MHz):
Downlink (MHz): 436.730
Beacon (MHz):
Mode: 4k8*/9k6 FSK
Call sign:
Status: Active

Your satellite tracking list
Your tracking list is empty




NASA's NSSDC Master Catalog

Two Line Element Set (TLE):
1 43768U 18099L   24257.08796398  .00020454  00000-0  14600-2 0  9993
2 43768  97.5286 308.8257 0005448   4.3392 355.7880 15.04537768315339
Source of the keplerian elements: AFSPC